Latest Coastal Weather Observations for Smithton

IDT60701

Issued at 1:35 pm EST Saturday 23 August 2014 (issued every 10 minutes, with the page automatically refreshed every 10 minutes)

About coastal observations | Map of coastal stations | Coastal observations for TAS | Marine services | Other Formats
Station Details ID: 091292 Name: SMITHTON AERODROME Lat: -40.83 Lon: 145.08 Height: 7.5 m
Data from the previous 72 hours. | See also: Recent months at Smithton
Date/Time
EST
Temp

°C
Wind Pressure Rain
since 9am
mm
Weather Cloud Vis
km
Sea
Height
m
Swell
Dir
 
Speed
knots
Gust
knots
hPa Trend Height
m
Period
s
Dir
23/01:30pm 14.9 E 16 20 1026.5 - 0.0 - - - - - - -
23/01:00pm 15.4 ENE 15 19 1026.9 - 0.0 - - - - - - -
23/12:30pm 15.3 ENE 15 19 1027.2 - 0.0 - - - - - - -
23/12:00pm 14.5 ENE 16 21 1027.6 - 0.0 - - - - - - -
23/11:30am 14.8 ENE 16 20 1028.1 - 0.0 - - - - - - -
23/11:00am 14.2 ENE 16 20 1028.5 - 0.0 - - - - - - -
23/10:30am 14.7 ENE 14 19 1028.7 - 0.0 - - - - - - -
23/10:00am 13.9 ENE 15 19 1028.8 - 0.0 - - - - - - -
23/09:30am 13.7 ENE 15 22 1028.9 - 0.0 - - - - - - -
23/09:00am 13.9 ENE 14 19 1029.0 - 0.0 - - - - - - -
23/08:30am 13.0 ENE 12 16 1029.2 - 0.0 - - - - - - -
23/08:00am 12.7 E 13 18 1029.0 - 0.0 - - - - - - -
23/07:30am 12.1 E 13 16 1028.8 - 0.0 - - - - - - -
23/07:00am 12.0 ENE 13 18 1028.6 - 0.0 - - - - - - -
23/06:30am 11.9 E 14 21 1028.4 - 0.0 - - - - - - -
23/06:00am 11.9 E 14 19 1028.3 - 0.0 - - - - - - -
23/05:30am 12.1 ENE 12 16 1028.4 - 0.0 - - - - - - -
23/05:00am 11.9 E 12 18 1028.4 - 0.0 - - - - - - -
23/04:30am 12.4 ENE 12 16 1028.4 - 0.0 - - - - - - -
23/04:00am 12.4 ENE 12 16 1028.4 - 0.0 - - - - - - -
23/03:30am 12.4 ENE 14 21 1028.4 - 0.0 - - - - - - -
23/03:00am 12.3 ENE 12 16 1028.7 - 0.0 - - - - - - -
23/02:30am 12.4 E 13 19 1029.1 - 0.0 - - - - - - -
23/02:00am 12.3 E 12 19 1029.3 - 0.0 - - - - - - -
23/01:30am 12.2 ENE 12 17 1029.3 - 0.0 - - - - - - -
23/01:00am 12.1 ENE 14 17 1029.4 - 0.0 - - - - - - -
23/12:30am 12.0 ENE 14 19 1029.4 - 0.0 - - - - - - -
23/12:00am 12.0 E 13 19 1029.5 - 0.0 - - - - - - -
 
Date/Time
EST
Temp

°C
Wind Pressure Rain
since 9am
mm
Weather Cloud Vis
km
Sea
Height
m
Swell
Dir
 
Speed
knots
Gust
knots
hPa Trend Height
m
Period
s
Dir
22/11:30pm 12.0 E 13 17 1029.8 - 0.0 - - - - - - -
22/11:00pm 12.2 ENE 12 19 1029.8 - 0.0 - - - - - - -
22/10:30pm 11.8 ENE 12 16 1030.0 - 0.0 - - - - - - -
22/10:00pm 11.5 E 11 14 1030.2 - 0.0 - - - - - - -
22/09:30pm 11.3 E 11 15 1030.3 - 0.0 - - - - - - -
22/09:00pm 11.0 E 10 13 1030.4 - 0.0 - - - - - - -
22/08:30pm 11.1 E 10 13 1030.3 - 0.0 - - - - - - -
22/08:00pm 11.2 E 8 11 1030.3 - 0.0 - - - - - - -
22/07:30pm 11.2 E 8 12 1030.3 - 0.0 - - - - - - -
22/07:00pm 11.2 E 8 9 1030.2 - 0.0 - - - - - - -
22/06:30pm 11.6 E 9 11 1030.1 - 0.0 - - - - - - -
22/06:00pm 11.8 ENE 9 12 1029.9 - 0.0 - - - - - - -
22/05:30pm 12.6 ENE 10 13 1029.8 - 0.0 - - - - - - -
22/05:00pm 13.3 ENE 9 12 1029.8 - 0.0 - - - - - - -
22/04:30pm 13.6 NE 10 13 1029.6 - 0.0 - - - - - - -
22/04:00pm 13.9 ENE 11 15 1029.7 - 0.0 - - - - - - -
22/03:30pm 14.3 NE 12 15 1029.7 - 0.0 - - - - - - -
22/03:00pm 14.8 NE 12 16 1029.8 - 0.0 - - - - - - -
22/02:30pm 14.7 NE 14 19 1029.8 - 0.0 - - - - - - -
22/02:00pm 14.7 NE 14 19 1030.0 - 0.0 - - - - - - -
22/01:30pm 14.7 NE 14 19 1030.1 - 0.0 - - - - - - -
22/01:00pm 14.9 ENE 14 18 1030.4 - 0.0 - - - - - - -
22/12:30pm 15.0 ENE 15 20 1030.7 - 0.0 - - - - - - -
22/12:00pm 15.1 ENE 16 22 1030.8 - 0.0 - - - - - - -
22/11:30am 15.0 NE 15 22 1031.3 - 0.0 - - - - - - -
22/11:00am 14.0 ENE 15 21 1031.6 - 0.0 - - - - - - -
22/10:30am 13.7 ENE 16 22 1031.5 - 0.0 - - - - - - -
22/10:00am 13.6 NE 14 19 1031.7 - 0.0 - - - - - - -
22/09:30am 14.0 ENE 16 22 1031.7 - 0.0 - - - - - - -
22/09:00am 13.0 ENE 16 21 1031.6 - 0.2 - - - - - - -
22/08:30am 12.7 ENE 15 21 1031.6 - 0.2 - - - - - - -
22/08:00am 12.5 ENE 15 22 1031.6 - 0.2 - - - - - - -
22/07:30am 12.1 ENE 14 19 1031.2 - 0.2 - - - - - - -
22/07:00am 12.0 ENE 16 21 1030.8 - 0.2 - - - - - - -
22/06:30am 11.8 ENE 15 21 1030.7 - 0.2 - - - - - - -
22/06:00am 11.9 E 16 22 1030.6 - 0.2 - - - - - - -
22/05:30am 12.0 ENE 15 22 1030.7 - 0.2 - - - - - - -
22/05:00am 12.0 ENE 14 19 1030.6 - 0.2 - - - - - - -
22/04:30am 11.9 E 15 20 1030.4 - 0.2 - - - - - - -
22/04:00am 11.9 ENE 14 22 1030.4 - 0.2 - - - - - - -
22/03:30am 11.8 ENE 15 19 1030.4 - 0.2 - - - - - - -
22/03:00am 11.7 ENE 14 19 1030.5 - 0.2 - - - - - - -
22/02:30am 11.8 NE 13 18 1030.8 - 0.0 - - - - - - -
22/02:00am 11.9 ENE 14 20 1031.1 - 0.0 - - - - - - -
22/01:30am 11.8 ENE 15 21 1031.1 - 0.0 - - - - - - -
22/01:00am 11.4 ENE 14 19 1031.1 - 0.0 - - - - - - -
22/12:30am 11.4 ENE 14 20 1031.1 - 0.0 - - - - - - -
22/12:00am 11.5 ENE 16 23 1031.0 - 0.0 - - - - - - -
 
Date/Time
EST
Temp

°C
Wind Pressure Rain
since 9am
mm
Weather Cloud Vis
km
Sea
Height
m
Swell
Dir
 
Speed
knots
Gust
knots
hPa Trend Height
m
Period
s
Dir
21/11:30pm 11.6 ENE 14 19 1031.2 - 0.0 - - - - - - -
21/11:00pm 11.4 ENE 14 17 1031.3 - 0.0 - - - - - - -
21/10:30pm 11.4 ENE 14 17 1031.3 - 0.0 - - - - - - -
21/10:00pm 11.3 ENE 13 17 1031.5 - 0.0 - - - - - - -
21/09:30pm 11.3 ENE 14 18 1031.4 - 0.0 - - - - - - -
21/09:00pm 11.2 ENE 12 17 1031.4 - 0.0 - - - - - - -
21/08:30pm 11.4 ENE 13 19 1031.1 - 0.0 - - - - - - -
21/08:00pm 11.4 ENE 13 17 1031.1 - 0.0 - - - - - - -
21/07:30pm 11.1 ENE 13 15 1030.9 - 0.0 - - - - - - -
21/07:00pm 10.9 ENE 11 15 1030.8 - 0.0 - - - - - - -
21/06:30pm 11.2 ENE 13 16 1030.6 - 0.0 - - - - - - -
21/06:00pm 11.4 ENE 13 17 1030.5 - 0.0 - - - - - - -
21/05:30pm 11.5 ENE 13 17 1030.3 - 0.0 - - - - - - -
21/05:00pm 12.1 ENE 14 19 1030.0 - 0.0 - - - - - - -
21/04:30pm 12.3 ENE 15 20 1029.8 - 0.0 - - - - - - -
21/04:00pm 12.6 E 16 20 1029.8 - 0.0 - - - - - - -
21/03:30pm 11.9 E 14 21 1029.8 - 0.0 - - - - - - -
21/03:00pm 12.9 E 16 21 1029.7 - 0.0 - - - - - - -
21/02:30pm 12.6 ENE 17 21 1029.9 - 0.0 - - - - - - -
21/02:00pm 12.9 ENE 17 21 1030.1 - 0.0 - - - - - - -
21/01:30pm 13.1 ENE 16 23 1030.3 - 0.0 - - - - - - -
21/01:00pm 13.1 ENE 16 21 1030.6 - 0.0 - - - - - - -
21/12:30pm 13.5 ENE 17 21 1030.8 - 0.0 - - - - - - -
21/12:00pm 13.9 ENE 16 22 1031.1 - 0.0 - - - - - - -
21/11:30am 13.7 ENE 15 21 1031.4 - 0.0 - - - - - - -
21/11:00am 13.1 E 15 21 1031.5 - 0.0 - - - - - - -
21/10:30am 11.9 E 14 19 1031.7 - 0.0 - - - - - - -
21/10:00am 11.6 E 13 19 1031.7 - 0.0 - - - - - - -
21/09:30am 10.4 E 12 16 1031.7 - 0.0 - - - - - - -
21/09:00am 9.2 E 6 9 1031.7 - 0.0 - - - - - - -
21/08:30am 8.7 ENE 6 8 1031.6 - 0.0 - - - - - - -
21/08:00am 7.6 E 6 8 1031.4 - 0.0 - - - - - - -
21/07:30am 6.2 ESE 6 7 1031.1 - 0.0 - - - - - - -
21/07:00am 4.5 ESE 5 6 1030.7 - 0.0 - - - - - - -
21/06:30am 2.6 ESE 4 5 1030.3 - 0.0 - - - - - - -
21/06:00am 2.1 SSE 3 4 1030.3 - 0.0 - - - - - - -
21/05:30am 2.8 S 4 5 1030.2 - 0.0 - - - - - - -
21/05:00am 2.1 S 3 4 1030.2 - 0.0 - - - - - - -
21/04:30am 2.6 S 3 4 1030.1 - 0.0 - - - - - - -
21/04:00am 2.7 S 4 4 1029.9 - 0.0 - - - - - - -
21/03:30am 2.8 S 4 6 1029.9 - 0.0 - - - - - - -
21/03:00am 3.0 S 5 6 1029.9 - 0.0 - - - - - - -
21/02:30am 3.4 S 5 7 1029.9 - 0.0 - - - - - - -
21/02:00am 3.5 S 4 5 1029.8 - 0.0 - - - - - - -
21/01:30am 3.0 S 5 6 1029.9 - 0.0 - - - - - - -
21/01:00am 3.1 S 3 5 1029.8 - 0.0 - - - - - - -
21/12:30am 4.9 S 4 5 1029.8 - 0.0 - - - - - - -
21/12:00am 3.2 S 5 6 1029.8 - 0.0 - - - - - - -
 
Date/Time
EST
Temp

°C
Wind Pressure Rain
since 9am
mm
Weather Cloud Vis
km
Sea
Height
m
Swell
Dir
 
Speed
knots
Gust
knots
hPa Trend Height
m
Period
s
Dir
20/11:30pm 3.0 S 5 6 1029.7 - 0.0 - - - - - - -
20/11:00pm 3.7 S 4 5 1029.5 - 0.0 - - - - - - -
20/10:30pm 5.5 CALM 0 0 1029.5 - 0.0 - - - - - - -
20/10:00pm 6.3 S 3 4 1029.5 - 0.0 - - - - - - -
20/09:30pm 6.7 S 4 5 1029.4 - 0.0 - - - - - - -
20/09:00pm 7.5 N 4 5 1029.3 - 0.0 - - - - - - -
20/08:30pm 8.3 N 3 4 1029.2 - 0.0 - - - - - - -
20/08:00pm 8.4 N 3 3 1029.0 - 0.0 - - - - - - -
20/07:30pm 8.5 CALM 0 1 1028.7 - 0.0 - - - - - - -
20/07:00pm 9.3 N 2 3 1028.5 - 0.0 - - - - - - -
20/06:30pm 9.9 N 3 4 1028.3 - 0.0 - - - - - - -
20/06:00pm 9.8 N 4 5 1027.8 - 0.0 - - - - - - -
20/05:30pm 9.9 N 4 5 1027.5 - 0.0 - - - - - - -
20/05:00pm 11.2 N 5 6 1027.1 - 0.0 - - - - - - -
20/04:30pm 11.7 N 6 8 1026.8 - 0.0 - - - - - - -
20/04:00pm 12.1 NNE 8 9 1026.6 - 0.0 - - - - - - -
20/03:30pm 12.5 N 8 9 1026.5 - 0.0 - - - - - - -
20/03:00pm 13.3 NNE 8 9 1026.3 - 0.0 - - - - - - -
20/02:30pm 13.3 NNE 8 10 1026.2 - 0.0 - - - - - - -
20/02:00pm 13.3 N 7 9 1026.2 - 0.0 - - - - - - -

Other Formats:

Comma delimited format used in spreadsheet applications
http://www.bom.gov.au/fwo/IDT60701/IDT60701.94953.axf

JavaScript Object Notation format (JSON) in row-major order
http://www.bom.gov.au/fwo/IDT60701/IDT60701.94953.json